Location: Greenspot (historical)
(34.0858°N, 117.1109°W)
Time: 05:38:48
(UTC+00:00)

Cosmos 2369 Rocket - Pass Details

Date: 18 April 2024
Orbit: 830 x 850 km, 71.0° (Epoch: 28 May)

Event Time Altitude Azimuth Distance (km) Brightness Sun altitude
Rises 12:27:25 0° 336° (NNW) 3,380 5.3 -9.8°
Reaches altitude 10° 12:29:52 10° 334° (NNW) 2,441 4.5 -9.4°
Maximum altitude 12:35:25 68° 252° (WSW) 892 2.1 -8.3°
Drops below altitude 10° 12:40:55 10° 170° (S) 2,425 4.5 -7.2°
Sets 12:43:21 0° 168° (SSE) 3,355 5.3 -6.7°
